Regional Weather Roundup
Issued by NWS

Home | Current Version | Previous Version | Graphics & Text | Print | Product List | Glossary On
Versions: 1 2 3 4 5 6 7 8 9 10 11 12 13 14 15 16 17 18 19 20 21 22 23 24 25 26 27 28 29 30 31 32 33 34 35 36 37 38 39 40 41 42 43 44 45 46 47 48 49 50
000
ASUS43 KDTX 031510
RWRMI
MICHIGAN HOURLY REGIONAL WEATHER ROUNDUP
NATIONAL WEATHER SERVICE DETROIT/PONTIAC MI
1000 AM EST SAT DEC 03 2016

NOTE: "FAIR" INDICATES FEW OR NO CLOUDS BELOW 12,000 FEET WITH NO
SIGNIFICANT WEATHER AND/OR OBSTRUCTION TO VISIBILITY.

MIZ047>049-052>055-059>063-066>070-074>076-081>083-031600-
SOUTHEAST LOWER MICHIGAN

CITY           SKY/WX    TMP DP  RH WIND       PRES   REMARKS
ADRIAN         CLOUDY    35  30  82 W3        30.33R
ALMA           CLOUDY    36  31  82 W7        30.30S WCI  30
ANN ARBOR      CLOUDY    35  31  85 SW8       30.31S WCI  29
BAD AXE        CLOUDY    37  34  87 W7        30.27R WCI  32
CARO           CLOUDY    36  32  87 SW7       30.28R WCI  30
DETROIT CITY   CLOUDY    37  30  75 W7        30.31R WCI  32
DETROIT        CLOUDY    37  30  75 W7        30.32S WCI  32
FLINT          CLOUDY    36  30  79 W7        30.30S WCI  30
GROSSE ILE     CLOUDY    37  31  77 W6        30.31S WCI  32
HILLSDALE      CLOUDY    34  28  80 W5        30.30S WCI  30
HOWELL         CLOUDY    35  31  85 SW7       30.29S WCI  29

CITY           SKY/WX    TMP DP  RH WIND       PRES   REMARKS
JACKSON        CLOUDY    35  28  75 W9        30.31S WCI  28
LAMBERTVILLE   CLOUDY    38  32  78 W3        30.34R
LANSING        CLOUDY    35  30  82 W8        30.32R WCI  29
LAPEER         NOT AVBL
MASON          CLOUDY    35  31  85 W6        30.31S WCI  30
MONROE         CLOUDY    37  32  82 W6        30.32S WCI  32
MT. CLEMENS    CLOUDY    37  31  76 W9        30.28R WCI  31
PONTIAC        CLOUDY    35  29  78 W9        30.28S WCI  28
PORT HOPE        N/A     40  33  76 W9        30.24R WCI  34
PORT HURON     CLOUDY    36  32  87 W7        30.29R WCI  30
TRI CITIES     CLOUDY    36  32  85 W13       30.30R WCI  27
MIDLAND        CLOUDY    37  30  78 W7        30.28S WCI  31
TROY           CLOUDY    38  28  69 W5        30.32R WCI  34
SAGINAW HB     CLOUDY    36  30  80 SW10      30.29R WCI  28
$$
MIZ043>046-050>051-056>058-064>065-071>073-077>080-031600-
SOUTHWEST LOWER MICHIGAN

CITY           SKY/WX    TMP DP  RH WIND       PRES   REMARKS
BATTLE CREEK   CLOUDY    36  30  79 W5        30.31S WCI  32
BENTON HARBOR  CLOUDY    36  26  67 W9        30.34R WCI  29
BIG RAPIDS     CLOUDY    35  30  82 W6        30.28S WCI  30
COLDWATER      CLOUDY    36  29  77 W3        30.32R
FREMONT        CLOUDY    33  29  85 W3        30.30F HAZE
HOLLAND        CLOUDY    37  28  70 W7        30.32S WCI  32
GRAND RAPIDS   FLURRIES  35  29  78 N5        30.31F WCI  31
IONIA          CLOUDY    35  30  82 W7        30.29F WCI  29
KALAMAZOO      CLOUDY    36  27  69 SW6       30.32S WCI  31
LUDINGTON      LGT SNOW  34  32  92 W5        30.30S WCI  30
MARSHALL       CLOUDY    36  30  79 CALM      30.31S
MOUNT PLEASANT CLOUDY    36  31  83 W8        30.28S WCI  29
MUSKEGON       CLOUDY    37  28  70 W8        30.32S WCI  31
SOUTH HAVEN    CLOUDY    38  29  70 W8        30.33R WCI  32
$$
MIZ016>042-031600-
NORTHERN LOWER MICHIGAN

CITY           SKY/WX    TMP DP  RH WIND       PRES   REMARKS
ALPENA         CLOUDY    37  32  82 W6        30.24R WCI  32
BEAVER ISLAND  CLOUDY    37  32  82 NW3       30.26R
BELLAIRE       MIX PCPN  35  34  96 SW3       30.27R
CADILLAC       CLOUDY    33  32  95 W7        30.25R WCI  27
CHARLEVOIX     CLOUDY    38  32  78 N8        30.28R WCI  33
FRANKFORT      CLOUDY    37  36  94 CALM      30.27R
GAYLORD        CLOUDY    35  32  88 CALM      30.23R
GRAYLING       CLOUDY    35  34  96 W3        30.25R
HARBOR SPRINGS CLOUDY    37  32  85 CALM      30.25R
HOUGHTON LAKE  CLOUDY    35  32  88 W9        30.26R WCI  28
MANISTEE       CLOUDY    37  32  82 W10       30.29R WCI  30
OSCODA         CLOUDY    39  34  80 W5        30.24S
PELLSTON       CLOUDY    37  31  78 NW5       30.25R WCI  33
ROGERS CITY    CLOUDY    37  32  82 W7        30.25R WCI  32
TRAVERSE CITY  CLOUDY    37  35  92 CALM      30.26R
$$
MIZ007>008-015-031600-
EASTERN UPPER MICHIGAN

CITY           SKY/WX    TMP DP  RH WIND       PRES   REMARKS
KINROSS        CLOUDY    32  32 100 W6        30.23R WCI  26
MACKINAC ISLAN CLOUDY    35  32  88 NW5       30.24R WCI  31
NEWBERRY       CLOUDY    33  32  96 W5        30.24R WCI  28
S. S. MARIE    CLOUDY    33  32  96 SW3       30.22R
MUNISING         N/A     33  33 100 S3        30.26
$$
MIZ004>006-011>014-085-031600-
CENTRAL UPPER MICHIGAN

CITY           SKY/WX    TMP DP  RH WIND       PRES   REMARKS
MANISTIQUE     CLOUDY    34  32  90 NW5       30.26S WCI  30
ESCANABA       CLOUDY    34  29  82 NW3       30.28S
MENOMINEE      CLOUDY    33  28  81 W7        30.30R WCI  27
SAWYER-GWINN   CLOUDY    30  28  93 W5        30.25R WCI  25
$$
MIZ001>003-009>011-084-031600-
WESTERN UPPER MICHIGAN

CITY           SKY/WX    TMP DP  RH WIND       PRES   REMARKS
IRON MOUNTAIN  CLOUDY    32  25  75 W5        30.25R WCI  27
HOUGHTON       CLOUDY    31  28  89 CALM      30.24R
COPPER HARBOR    N/A     34  29  82 W3        30.26R
IRONWOOD       LGT SNOW  28  27  93 SW6       30.26S FOG     WCI  22
$$

ABBREVIATIONS USED IN REMARKS
   TC - TEMPERATURE IN CELSIUS
  WCI - WIND CHILL INDEX
   HX - HEAT INDEX
  VSB - VISIBILITY





USA.gov is the U.S. government's official web portal to all federal, state and local government web resources and services.